Location: Unspecified
(0.0000°N, 0.0000°E)
Time: 10:01:05
(UTC+01:00)

Centaur D-1AR AC-41 - Visible Passes

Search period start: 01 November 2014 00:00
Search period end: 11 November 2014 00:00
Orbit: 650 x 36193 km, 21.3° (Epoch: 31 October)

Date Brightness Start Highest point End Pass type
(mag) Time Alt. Az. Time Alt. Az. Time Alt. Az.
02 Nov 5.8 07:48:44 10° WSW 08:30:20 60° SSE 08:36:03 10° E visible
02 Nov 8.7 19:52:01 10° WNW 21:47:25 89° ESE 06:04:10 10° ESE visible
03 Nov 7.7 17:18:49 10° NW 00:01:45 71° SSE 03:28:53 10° ESE visible
04 Nov 6.3 14:48:04 10° NW 22:49:00 43° ESE 15:22:31 10° ENE visible
06 Nov 9.8 00:07:41 10° W 01:24:04 24° W 04:03:05 10° W visible
06 Nov 8.4 21:09:59 10° WNW 22:48:52 65° W 07:18:52 10° E visible
07 Nov 8.3 18:33:23 10° NW 22:44:28 79° SSE 04:45:57 10° ESE visible
08 Nov 7.0 16:01:39 10° NW 23:44:56 61° SE 02:07:41 10° ESE visible
09 Nov 9.6 18:21:45 10° E 21:35:54 27° ESE 23:09:49 10° ESE visible
10 Nov 9.5 22:33:28 10° WNW 00:00:00 41° W 00:00:00 41° W visible
